Погода в Депутатском

Россия / Республика Саха (Якутия)     69°20′26″N   139°57′01″E
темп.,
°C
ветер,
м/с
пор.,
м/с
влажн.,
%
обл.,
%
осадки,
мм/ч
давл.,
гПа
погр.,
м
1 марта, пн
пн101:00−38вюв0010082 0.0 102619
04:00−38юв0110086 0.0 102519
07:00−38ююв0010081 0.0 102519
10:00−35ююв009975 0.0 102519
13:00−32вюв119755 0.0 102529
16:00−34в009939 0.0 102419
19:00−36з0010020 0.0 102519
22:00−36зсз0010013 0.0 102519
2 марта, вт
вт201:00−36зсз111000 0.0 102519
04:00−36сз001005 0.0 102619
07:00−35зсз0010085 0.0 102719
10:00−34ссв0010089 0.0 102619
13:00−31в1198100 0.0 102739
16:00−33в0110097 0.0 102719
19:00−36юв0110072 0.0 102819
22:00−37юв0010067 0.0 102819
3 марта, ср
ср301:00−37юв0010032 0.0 102819
04:00−37в1110051 0.0 102719
07:00−36в1110098 0.0 102619
10:00−34в119999 0.0 102524
13:00−32в1198100 0.0 1023101
16:00−32в1199100 0.0 102267
19:00−33всв1199100 0.1 102219
22:00−32всв1199100 0.3 102019
4 марта, чт
чт401:00−33ссв1199100 0.1 101919
04:00−33ссз2299100 0.3 101820
07:00−33сз2298100 0.1 101780
10:00−33сз3397100 0.3 1016157
13:00−32зсз3396100 0.2 1015180
16:00−31зсз4497100 0.6 1015178
19:00−31зсз4494100 0.3 1015174
22:00−31з5590100 0.3 1014182
5 марта, пт
пт501:00−31з5589100 0.0 1014160
04:00−31з6888100 0.0 1015228
07:00−31з61686100 0.0 1015436
10:00−30з61486100 0.0 1016454
13:00−29з61485100 0.0 1016474
16:00−28з61586100 0.0 1017495
19:00−29з51587100 0.0 1018488
22:00−30з5788100 0.0 1019337